Location: Palomar Mountain Lodge
(33.3110°N, 116.8495°W)
Time: 18:24:25
(UTC-08:00)

Cosmos 2151 - Pass Details

Date: 13 December 2025
Orbit: 560 x 575 km, 82.5° (Epoch: 12 January)

Event Time Altitude Azimuth Distance (km) Brightness Sun altitude
Rises 17:08:53 0° 348° (NNW) 2,782 6.3 -6.1°
Reaches altitude 10° 17:11:06 10° 345° (NNW) 1,882 5.5 -6.5°
Maximum altitude 17:15:10 57° 266° (W) 675 3.7 -7.3°
Drops below altitude 10° 17:19:13 10° 188° (S) 1,873 6.0 -8.1°
Sets 17:21:25 0° 184° (S) 2,766 6.8 -8.5°
